CW9803 Weather Reports


Display with metric or nautical units.
time (UTC)temp
F
wind
direction
speed
MPH
gust
MPH
rain 1hr
in
rain 24hr
in
rain mn
in
humidity
%
barometer
mb
20260509081732 44 160 0.0 1.0 0.00 0.00 0.00 76 1017.7
20260509081230 44 149 0.0 0.0 0.00 0.00 0.00 76 1017.8
20260509080728 44 155 0.0 0.0 0.00 0.00 0.00 75 1017.8
20260509080225 45 138 1.0 1.0 0.00 0.00 0.00 74 1017.6
20260509075723 44 116 0.0 0.0 0.00 0.00 0.00 76 1017.8
20260509075220 45 150 0.0 1.0 0.00 0.00 0.00 76 1017.6
20260509074717 44 148 0.0 0.0 0.00 0.00 0.00 75 1017.5
20260509074215 45 146 0.0 0.0 0.00 0.00 0.00 75 1017.3
20260509073711 45 150 0.0 0.0 0.00 0.00 0.00 74 1017.6
20260509073207 46 143 0.0 0.0 0.00 0.00 0.00 73 1017.5
20260509072704 46 145 0.0 0.0 0.00 0.00 0.00 73 1017.5
20260509072201 47 154 0.0 0.0 0.00 0.00 0.00 71 1017.4
20260509071657 47 140 0.0 0.0 0.00 0.00 0.00 71 1017.3
20260509071155 47 109 1.0 1.0 0.00 0.00 0.00 72 1017.5
20260509070651 47 147 0.0 0.0 0.00 0.00 0.00 71 1017.5
20260509070148 47 150 0.0 0.0 0.00 0.00 0.00 71 1017.4
20260509065644 47 130 0.0 0.0 0.00 0.00 0.00 70 1017.4
20260509065140 47 132 0.0 0.0 0.00 0.00 0.00 70 1017.2
20260509064637 48 140 0.0 0.0 0.00 0.00 0.00 69 1017.1
20260509064135 48 134 0.0 0.0 0.00 0.00 0.00 68 1017.3
20260509063632 48 115 0.0 1.0 0.00 0.00 0.00 68 1017.2
20260509063128 49 128 0.0 0.0 0.00 0.00 0.00 67 1017.2
20260509062626 50 141 0.0 0.0 0.00 0.00 0.00 64 1017.2
20260509062123 50 112 1.0 1.0 0.00 0.00 0.00 63 1017.0
20260509061620 50 153 0.0 0.0 0.00 0.00 0.00 63 1017.1
20260509061117 50 158 0.0 1.0 0.00 0.00 0.00 63 1017.2
20260509060615 51 158 1.0 1.0 0.00 0.00 0.00 61 1017.2
20260509060110 51 135 0.0 0.0 0.00 0.00 0.00 60 1017.1
20260509055606 51 142 1.0 1.0 0.00 0.00 0.00 60 1017.1
20260509055102 51 153 0.0 0.0 0.00 0.00 0.00 60 1017.0
20260509054559 51 158 0.0 0.0 0.00 0.00 0.00 60 1017.2
20260509054057 53 113 0.0 0.0 0.00 0.00 0.00 58 1017.1
20260509053555 55 112 0.0 0.0 0.00 0.00 0.00 54 1017.1
20260509053051 56 153 0.0 0.0 0.00 0.00 0.00 51 1016.8
20260509052550 57 169 1.0 1.0 0.00 0.00 0.00 49 1016.9
20260509052047 57 174 1.0 2.0 0.00 0.00 0.00 47 1017.0
20260509051545 58 223 2.0 3.0 0.00 0.00 0.00 46 1016.6
20260509051041 58 268 4.0 4.0 0.00 0.00 0.00 45 1016.8
20260509050538 58 159 1.0 2.0 0.00 0.00 0.00 46 1016.5
20260509050035 59 243 3.0 4.0 0.00 0.00 0.00 45 1016.5
20260509045532 58 247 3.0 3.0 0.00 0.00 0.00 46 1016.4
20260509045029 58 179 1.0 2.0 0.00 0.00 0.00 46 1016.0
20260509044527 58 191 2.0 2.0 0.00 0.00 0.00 47 1016.4
20260509044024 59 175 1.0 2.0 0.00 0.00 0.00 45 1016.2
20260509043520 59 281 4.0 4.0 0.00 0.00 0.00 44 1016.2
20260509043010 60 178 1.0 1.0 0.00 0.00 0.00 43 1016.0
20260509042507 59 235 2.0 3.0 0.00 0.00 0.00 43 1015.9
20260509042003 60 211 1.0 1.0 0.00 0.00 0.00 43 1016.0
20260509041500 60 149 0.0 1.0 0.00 0.00 0.00 43 1016.0
20260509040958 60 153 1.0 1.0 0.00 0.00 0.00 42 1016.0
20260509040456 61 175 2.0 2.0 0.00 0.00 0.00 41 1016.0
20260509035951 62 288 3.0 3.0 0.00 0.00 0.00 39 1016.0
20260509035449 61 244 4.0 7.0 0.00 0.00 0.00 40 1015.7
20260509034945 62 250 6.0 7.0 0.00 0.00 0.00 39 1015.7
20260509034443 60 205 4.0 4.0 0.00 0.00 0.00 43 1015.8
20260509033940 61 169 1.0 1.0 0.00 0.00 0.00 42 1015.7
20260509033437 62 216 2.0 3.0 0.00 0.00 0.00 39 1015.3
20260509032934 62 233 2.0 3.0 0.00 0.00 0.00 38 1015.6
20260509032431 61 250 4.0 6.0 0.00 0.00 0.00 38 1015.3
20260509031929 62 141 0.0 0.0 0.00 0.00 0.00 38 1015.3
20260509031426 62 150 0.0 0.0 0.00 0.00 0.00 37 1015.3
20260509030924 62 168 1.0 2.0 0.00 0.00 0.00 37 1015.3
20260509030421 63 154 0.0 1.0 0.00 0.00 0.00 36 1015.0
20260509025918 63 152 1.0 1.0 0.00 0.00 0.00 36 1015.0
20260509025414 64 160 1.0 1.0 0.00 0.00 0.00 34 1015.0
20260509024909 63 104 1.0 2.0 0.00 0.00 0.00 35 1015.0
20260509024405 63 156 1.0 1.0 0.00 0.00 0.00 35 1014.8
20260509023903 64 158 3.0 3.0 0.00 0.00 0.00 36 1014.8
20260509023400 65 132 2.0 3.0 0.00 0.00 0.00 34 1014.7
20260509022856 66 278 5.0 7.0 0.00 0.00 0.00 33 1014.7
20260509022353 66 251 4.0 6.0 0.00 0.00 0.00 32 1014.7
20260509021851 66 261 2.0 3.0 0.00 0.00 0.00 32 1014.6
20260509021347 66 271 5.0 7.0 0.00 0.00 0.00 32 1014.6
20260509020845 67 263 4.0 4.0 0.00 0.00 0.00 32 1014.7
20260509020343 67 186 5.0 7.0 0.00 0.00 0.00 31 1014.4
20260509015840 68 202 2.0 4.0 0.00 0.00 0.00 30 1014.4
20260509015338 67 141 2.0 2.0 0.00 0.00 0.00 30 1014.5
20260509014835 67 105 2.0 3.0 0.00 0.00 0.00 30 1014.5
20260509014332 68 251 2.0 3.0 0.00 0.00 0.00 28 1014.4
20260509013828 68 69 3.0 3.0 0.00 0.00 0.00 28 1014.5
20260509013324 68 255 2.0 4.0 0.00 0.00 0.00 26 1014.5
20260509012815 68 211 2.0 3.0 0.00 0.00 0.00 26 1014.5
20260509012312 68 171 1.0 1.0 0.00 0.00 0.00 27 1014.4
20260509011809 68 196 4.0 4.0 0.00 0.00 0.00 26 1014.2
20260509011307 68 104 4.0 6.0 0.00 0.00 0.00 26 1014.3
20260509010804 68 252 9.0 13.0 0.00 0.00 0.00 25 1014.2
20260509010301 68 257 14.0 17.0 0.00 0.00 0.00 25 1014.4
20260509005758 69 247 7.0 8.0 0.00 0.00 0.00 25 1014.3
20260509005256 68 271 11.0 14.0 0.00 0.00 0.00 24 1014.4
20260509004755 68 290 9.0 11.0 0.00 0.00 0.00 24 1014.3
20260509004252 68 232 6.0 8.0 0.00 0.00 0.00 25 1014.3
20260509003751 69 296 9.0 11.0 0.00 0.00 0.00 25 1014.4
20260509003248 69 301 9.0 11.0 0.00 0.00 0.00 24 1014.4
20260509002745 70 274 4.0 4.0 0.00 0.00 0.00 24 1014.5
20260509002243 71 284 7.0 9.0 0.00 0.00 0.00 24 1014.3
20260509001741 71 268 9.0 10.0 0.00 0.00 0.00 23 1014.2
20260509001236 70 319 4.0 6.0 0.00 0.00 0.00 24 1013.9
20260509000734 70 258 6.0 8.0 0.00 0.00 0.00 25 1013.9
20260509000233 70 248 10.0 13.0 0.00 0.00 0.00 26 1013.9
20260508235728 71 280 5.0 7.0 0.00 0.00 0.00 25 1014.0
20260508235225 71 212 7.0 9.0 0.00 0.00 0.00 26 1014.0
20260508234722 71 214 3.0 6.0 0.00 0.00 0.00 27 1013.8
20260508234218 70 288 8.0 11.0 0.00 0.00 0.00 26 1013.8
20260508233718 71 253 10.0 13.0 0.00 0.00 0.00 27 1013.7
20260508233215 70 213 3.0 4.0 0.00 0.00 0.00 30 1013.9
20260508232712 71 166 9.0 10.0 0.00 0.00 0.00 29 1013.7
20260508232208 71 244 7.0 10.0 0.00 0.00 0.00 30 1013.8
20260508231707 71 329 7.0 9.0 0.00 0.00 0.00 31 1013.8
20260508231203 71 219 6.0 7.0 0.00 0.00 0.00 30 1013.6
20260508230700 71 244 7.0 8.0 0.00 0.00 0.00 31 1013.8
20260508230156 71 239 3.0 4.0 0.00 0.00 0.00 32 1013.7
20260508225654 71 305 11.0 14.0 0.00 0.00 0.00 31 1013.7
20260508225150 71 274 6.0 9.0 0.00 0.00 0.00 32 1013.9
20260508224648 70 276 5.0 8.0 0.00 0.00 0.00 33 1013.7
20260508224145 71 255 10.0 14.0 0.00 0.00 0.00 32 1013.7
20260508223643 70 66 7.0 8.0 0.00 0.00 0.00 33 1013.7
20260508223140 70 18 4.0 4.0 0.00 0.00 0.00 35 1013.9
20260508222637 70 320 4.0 6.0 0.00 0.00 0.00 34 1013.7
20260508222134 71 254 4.0 6.0 0.00 0.00 0.00 34 1013.8
20260508221631 71 294 5.0 6.0 0.00 0.00 0.00 35 1013.9
20260508221126 69 327 7.0 9.0 0.00 0.00 0.00 35 1013.9
20260508220623 70 294 6.0 8.0 0.00 0.00 0.00 35 1013.9
20260508220120 69 201 4.0 6.0 0.00 0.00 0.00 35 1013.8
20260508215617 69 241 3.0 4.0 0.00 0.00 0.00 33 1013.9
20260508215113 70 328 6.0 7.0 0.00 0.00 0.00 31 1013.9
20260508214610 70 302 4.0 6.0 0.00 0.00 0.00 31 1014.0
20260508214107 69 322 5.0 7.0 0.00 0.00 0.00 29 1013.7
20260508213604 70 253 4.0 4.0 0.00 0.00 0.00 30 1013.8
20260508213100 69 273 4.0 4.0 0.00 0.00 0.00 28 1013.6
20260508212557 69 231 5.0 6.0 0.00 0.00 0.00 28 1013.8
20260508212053 69 285 9.0 13.0 0.00 0.00 0.00 27 1013.7
20260508211548 69 285 6.0 8.0 0.00 0.00 0.00 28 1013.9
20260508211045 70 263 7.0 8.0 0.00 0.00 0.00 27 1013.6
20260508210542 71 192 5.0 7.0 0.00 0.00 0.00 27 1013.7
20260508210039 70 140 2.0 3.0 0.00 0.00 0.00 30 1013.7
20260508205536 70 146 1.0 1.0 0.00 0.00 0.00 30 1013.7
20260508205033 70 147 4.0 4.0 0.00 0.00 0.00 29 1013.6
20260508204529 70 204 2.0 2.0 0.00 0.00 0.00 29 1013.7
20260508204025 70 113 0.0 0.0 0.00 0.00 0.00 29 1013.7
20260508203521 70 159 1.0 2.0 0.00 0.00 0.00 29 1013.8
20260508203018 71 174 2.0 2.0 0.00 0.00 0.00 30 1013.7
20260508202514 69 179 2.0 4.0 0.00 0.00 0.00 33 1013.7
20260508202012 69 190 1.0 2.0 0.00 0.00 0.00 29 1013.7
20260508201508 68 168 4.0 6.0 0.00 0.00 0.00 33 1013.9
20260508201005 68 192 4.0 9.0 0.00 0.00 0.00 31 1014.0
20260508200502 69 168 4.0 4.0 0.00 0.00 0.00 29 1013.9
20260508195956 69 225 5.0 7.0 0.00 0.00 0.00 29 1013.8
20260508195454 71 145 0.0 1.0 0.00 0.00 0.00 30 1014.2
20260508194950 69 100 2.0 3.0 0.00 0.00 0.00 29 1013.9
20260508194448 68 117 1.0 2.0 0.00 0.00 0.00 30 1013.9
20260508193944 68 135 3.0 3.0 0.00 0.00 0.00 32 1013.8
20260508193441 68 185 4.0 4.0 0.00 0.00 0.00 30 1014.3
20260508192938 68 149 4.0 4.0 0.00 0.00 0.00 30 1014.0
20260508192435 68 219 1.0 1.0 0.00 0.00 0.00 28 1014.0
20260508191931 67 160 2.0 3.0 0.00 0.00 0.00 29 1014.3
20260508191429 67 145 4.0 6.0 0.00 0.00 0.00 33 1014.3
20260508190925 66 91 2.0 3.0 0.00 0.00 0.00 29 1014.4
20260508190423 65 244 2.0 3.0 0.00 0.00 0.00 38 1014.4
20260508185919 65 137 2.0 2.0 0.00 0.00 0.00 36 1014.3
20260508185417 65 148 4.0 6.0 0.00 0.00 0.00 33 1014.5
20260508184914 65 150 2.0 2.0 0.00 0.00 0.00 32 1014.4
20260508184411 65 154 2.0 2.0 0.00 0.00 0.00 34 1014.4
20260508183907 65 156 4.0 7.0 0.00 0.00 0.00 35 1014.4
20260508183404 64 165 4.0 6.0 0.00 0.00 0.00 37 1014.4
20260508182859 64 142 0.0 1.0 0.00 0.00 0.00 41 1014.4
20260508182356 63 176 2.0 2.0 0.00 0.00 0.00 45 1014.5
20260508181846 62 138 1.0 2.0 0.00 0.00 0.00 45 1014.8
20260508181343 62 146 2.0 2.0 0.00 0.00 0.00 42 1014.5
20260508180841 62 143 1.0 2.0 0.00 0.00 0.00 44 1014.6
20260508180337 61 156 2.0 3.0 0.00 0.00 0.00 42 1014.6
20260508175833 61 142 2.0 2.0 0.00 0.00 0.00 43 1014.7
20260508175330 61 121 1.0 1.0 0.00 0.00 0.00 41 1014.7
20260508174828 61 144 0.0 0.0 0.00 0.00 0.00 39 1014.9
20260508174325 61 147 0.0 1.0 0.00 0.00 0.00 40 1014.6
20260508173821 61 133 0.0 0.0 0.00 0.00 0.00 42 1014.7
20260508173319 58 136 2.0 2.0 0.00 0.00 0.00 42 1014.6
20260508172815 58 143 1.0 1.0 0.00 0.00 0.00 44 1014.7
20260508172312 58 136 2.0 2.0 0.00 0.00 0.00 43 1014.4
20260508171808 58 117 1.0 2.0 0.00 0.00 0.00 46 1014.5
20260508171304 57 149 2.0 2.0 0.00 0.00 0.00 47 1014.5
20260508170801 56 139 2.0 3.0 0.00 0.00 0.00 50 1014.5
20260508170300 55 158 3.0 4.0 0.00 0.00 0.00 53 1014.7
20260508165755 55 168 2.0 2.0 0.00 0.00 0.00 53 1014.7
20260508165253 54 162 1.0 2.0 0.00 0.00 0.00 55 1014.7
20260508164749 54 127 2.0 2.0 0.00 0.00 0.00 57 1014.8
20260508164246 53 156 2.0 2.0 0.00 0.00 0.00 59 1014.8
20260508163744 53 162 2.0 2.0 0.00 0.00 0.00 59 1014.6
20260508163242 53 174 1.0 1.0 0.00 0.00 0.00 61 1014.7
20260508162737 53 162 1.0 1.0 0.00 0.00 0.00 62 1014.7
20260508162234 52 137 1.0 1.0 0.00 0.00 0.00 63 1014.6
20260508161731 52 149 1.0 2.0 0.00 0.00 0.00 63 1014.5
20260508161228 51 147 1.0 1.0 0.00 0.00 0.00 64 1014.4
20260508160726 51 161 1.0 1.0 0.00 0.00 0.00 65 1014.6
20260508160224 51 149 2.0 2.0 0.00 0.00 0.00 64 1014.6
20260508155720 50 136 0.0 0.0 0.00 0.00 0.00 64 1014.6
20260508155218 50 135 1.0 1.0 0.00 0.00 0.00 64 1014.6
20260508154714 50 154 1.0 2.0 0.00 0.00 0.00 64 1014.5
20260508154212 49 156 1.0 1.0 0.00 0.00 0.00 63 1014.6
20260508153708 49 137 0.0 0.0 0.00 0.00 0.00 63 1014.5
20260508153206 48 172 0.0 1.0 0.00 0.00 0.00 64 1014.7
20260508152702 48 142 0.0 0.0 0.00 0.00 0.00 66 1014.7
20260508152158 48 131 0.0 0.0 0.00 0.00 0.00 64 1014.6
20260508151654 47 122 0.0 0.0 0.00 0.00 0.00 65 1014.6
20260508151151 46 152 0.0 0.0 0.00 0.00 0.00 67 1014.7
20260508150648 45 118 0.0 0.0 0.00 0.00 0.00 67 1014.7
20260508150144 44 157 0.0 1.0 0.00 0.00 0.00 67 1014.6
20260508145640 45 90 1.0 1.0 0.00 0.00 0.00 69 1014.7
20260508145137 44 308 2.0 2.0 0.00 0.00 0.00 73 1014.6
20260508144635 45 59 1.0 2.0 0.00 0.00 0.00 73 1014.7
20260508144132 44 116 0.0 0.0 0.00 0.00 0.00 75 1014.6
20260508143629 43 83 2.0 2.0 0.00 0.00 0.00 76 1014.6
20260508143126 42 58 2.0 2.0 0.00 0.00 0.00 76 1014.6
20260508142622 41 94 2.0 2.0 0.00 0.00 0.00 77 1014.5
20260508142119 40 8 2.0 3.0 0.00 0.00 0.00 79 1014.5
20260508141616 40 145 1.0 2.0 0.00 0.00 0.00 79 1014.6
20260508141114 0 0.0 0.0 0.00 0.00 0.00 1014.7
20260508140611 40 111 0.0 0.0 0.00 0.00 0.00 79 1014.6
20260508140108 40 111 0.0 0.0 0.00 0.00 0.00 79 1014.5
20260508135602 39 110 0.0 0.0 0.00 0.00 0.00 81 1014.5
20260508135059 38 115 0.0 0.0 0.00 0.00 0.00 82 1014.5
20260508134556 37 118 0.0 1.0 0.00 0.00 0.00 84 1014.7
20260508134053 37 104 0.0 0.0 0.00 0.00 0.00 85 1014.5
20260508133549 36 50 2.0 2.0 0.00 0.00 0.00 86 1014.5
20260508133047 36 118 0.0 0.0 0.00 0.00 0.00 88 1014.6
20260508132545 36 117 0.0 0.0 0.00 0.00 0.00 89 1014.5
20260508132041 35 125 0.0 0.0 0.00 0.00 0.00 92 1014.5
20260508131536 34 126 0.0 0.0 0.00 0.00 0.00 92 1014.5
20260508131033 33 135 0.0 0.0 0.00 0.00 0.00 93 1014.5
20260508130531 33 135 0.0 0.0 0.00 0.00 0.00 93 1014.5
20260508130026 0 0.0 0.0 0.00 0.00 0.00 1014.3
20260508125517 0 0.0 0.0 0.00 0.00 0.00 1014.3
20260508125015 0 0.0 0.0 0.00 0.00 0.00 1014.2
20260508124513 0 0.0 0.0 0.00 0.00 0.00 1014.3
20260508124010 0 0.0 0.0 0.00 0.00 0.00 1014.0
20260508123508 0 0.0 0.0 0.00 0.00 0.00 1014.2
20260508123004 33 126 0.0 0.0 0.00 0.00 0.00 89 1014.0
20260508122502 33 126 0.0 0.0 0.00 0.00 0.00 89 1014.2
20260508121958 33 126 0.0 0.0 0.00 0.00 0.00 89 1014.2
20260508121456 33 131 0.0 0.0 0.00 0.00 0.00 89 1014.2
20260508120954 33 142 0.0 0.0 0.00 0.00 0.00 89 1013.9
20260508120451 33 124 0.0 0.0 0.00 0.00 0.00 90 1014.0
20260508115949 33 124 0.0 0.0 0.00 0.00 0.00 90 1013.8
20260508115447 33 122 0.0 0.0 0.00 0.00 0.00 91 1013.8
20260508114943 0 0.0 0.0 0.00 0.00 0.00 1013.8
20260508114440 0 0.0 0.0 0.00 0.00 0.00 1013.8
20260508113937 0 0.0 0.0 0.00 0.00 0.00 1013.7
20260508113435 0 0.0 0.0 0.00 0.00 0.00 1013.7
20260508112932 0 0.0 0.0 0.00 0.00 0.00 1013.7
20260508112428 33 120 0.0 0.0 0.00 0.00 0.00 92 1013.7
20260508111925 33 120 0.0 0.0 0.00 0.00 0.00 92 1014.0
20260508111422 34 120 0.0 0.0 0.00 0.00 0.00 92 1013.8
20260508110919 35 169 1.0 1.0 0.00 0.00 0.00 92 1013.6
20260508110417 35 169 1.0 1.0 0.00 0.00 0.00 92 1013.6
20260508105916 35 113 0.0 0.0 0.00 0.00 0.00 92 1013.8
20260508105413 35 113 0.0 0.0 0.00 0.00 0.00 92 1013.7
20260508104910 35 152 0.0 0.0 0.00 0.00 0.00 92 1013.9
20260508104407 35 140 0.0 0.0 0.00 0.00 0.00 90 1013.7
20260508103904 35 122 0.0 0.0 0.00 0.00 0.00 89 1013.8
20260508103401 35 129 0.0 0.0 0.00 0.00 0.00 87 1013.8
20260508102858 35 126 0.0 0.0 0.00 0.00 0.00 87 1013.5
20260508102357 35 122 1.0 1.0 0.00 0.00 0.00 86 1013.5
20260508101854 36 98 1.0 1.0 0.00 0.00 0.00 86 1013.7
20260508101351 36 158 0.0 1.0 0.00 0.00 0.00 86 1013.6
20260508100848 36 114 0.0 0.0 0.00 0.00 0.00 86 1013.6
20260508100347 0 0.0 0.0 0.00 0.00 0.00 1013.3
20260508095842 0 0.0 0.0 0.00 0.00 0.00 1013.3
20260508095340 36 124 0.0 0.0 0.00 0.00 0.00 85 1013.5
20260508094837 36 124 0.0 0.0 0.00 0.00 0.00 85 1013.6
20260508094333 37 146 0.0 0.0 0.00 0.00 0.00 86 1013.5
20260508093831 37 146 0.0 0.0 0.00 0.00 0.00 86 1013.5
20260508093328 37 116 0.0 0.0 0.00 0.00 0.00 87 1013.7
20260508092825 37 114 0.0 0.0 0.00 0.00 0.00 87 1013.4
20260508092323 38 136 0.0 0.0 0.00 0.00 0.00 87 1013.5
20260508091821 38 137 0.0 1.0 0.00 0.00 0.00 85 1013.5
20260508091317 0 0.0 0.0 0.00 0.00 0.00 1013.4
20260508090815 39 175 2.0 2.0 0.00 0.00 0.00 83 1013.7
20260508090314 39 175 2.0 2.0 0.00 0.00 0.00 83 1013.5
20260508085809 0 0.0 0.0 0.00 0.00 0.00 1013.7
20260508085307 0 0.0 0.0 0.00 0.00 0.00 1013.8
20260508084802 40 133 0.0 0.0 0.00 0.00 0.00 82 1013.8
20260508084259 40 133 0.0 0.0 0.00 0.00 0.00 82 1013.7
20260508083757 0 0.0 0.0 0.00 0.00 0.00 1013.5
20260508083254 0 0.0 0.0 0.00 0.00 0.00 1013.8
20260508082754 0 0.0 0.0 0.00 0.00 0.00 1013.9
20260508082252 40 151 0.0 0.0 0.00 0.00 0.00 80 1013.6